Location: ?????????
(41.2393°N, 22.9479°E)
Time: 13:57:13
(UTC+00:00)

Cosmos 489 Rocket - Visible Passes

Search period start: 14 February 2026 00:00
Search period end: 24 February 2026 00:00
Orbit: 952 x 982 km, 74.0° (Epoch: 13 February)

Date Brightness Start Highest point End Pass type
(mag) Time Alt. Az. Time Alt. Az. Time Alt. Az.
14 Feb 6.4 16:31:47 10° WSW 16:37:05 29° WNW 16:42:27 10° N visible
15 Feb 6.9 16:56:31 10° W 17:00:31 17° NW 17:04:32 10° NNW visible
19 Feb 7.1 16:44:49 10° WNW 16:46:27 11° NW 16:48:07 10° NNW visible
